sat.trackr.live / text

‹ back to catalog

OPS 5712 (P/L 153)

NORAD 2874 · 1967-053H

PAYLOAD ACTIVE UNKNOWN

§ Identity

Operator
Country
US
Launch date
1967-05-31
Launch site
AFWTR
Launch vehicle
Mass (kg)
RCS (m²)
0.66

Purposes: military

External: N2YO · Heavens-Above · Gunter

§ Orbital elements

Epoch: 2026-09-20T00:07:29.306784Z

Period
103.09 min
Inclination
69.9718°
Eccentricity
0.0004698
Mean motion
13.96839607 rev/d
Perigee alt
901.3 km
Apogee alt
908.2 km
Semi-major
7,282.9 km
B*
4.0390e-5
RAAN
272.0683°
Arg perigee
61.0302°
Mean anomaly
299.1275°
Rev number
2,003

§ Raw data

OPS 5712 (P/L 153)1 02874U 67053H   26263.00520031  .00000003  00000+0  40390-4 0  99942 02874  69.9718 272.0683 0004698  61.0302 299.1275 13.96839607 20032

JSON: /api/v1/satellites/2874 · /tle

For live sub-satellite position, see the globe view (requires WebGL).

§ Visibility from observer

Set your observer location to see the next 7 days of passes ≥ 10°. The values pass through the URL so the page stays shareable.

No JS? Fill the form by hand. The geolocation button needs JavaScript.